Temperature
24 22 22 23 23 24 24 24 24 24 24 23 23 22 22 21 21 21 20 20 20 21 21 21 21 21 20 20 20 20 20 19 19 19 19 18 18 18 18 18 18 18 18 18
22 23 23 24 24 24 24 24 23 24 24 24 22 22 22 21 21 21 21 21 21 21 21 21 21 21 21 21 20 20 20 20 20 19 19 19 19 19 19 18 18 18 18 18
23 24 24 24 24 24 23 23 24 24 23 23 23 22 22 21 22 22 21 21 21 21 21 21 21 21 21 21 21 21 20 20 20 19 19 19 19 19 19 19 19 18 18 18
23 23 24 24 24 24 23 24 24 24 23 21 23 21 21 21 21 21 21 21 21 22 22 22 22 22 22 21 21 21 21 20 20 20 19 19 19 19 19 19 19 19 19 18
23 24 24 24 24 24 24 24 23 23 22 21 21 21 20 20 20 21 21 22 22 22 22 22 22 22 22 22 22 21 21 21 20 20 20 19 19 19 19 19 19 19 19 19
23 24 24 24 25 24 24 22 21 19 19 20 21 21 20 19 20 21 21 22 22 22 22 22 22 22 22 22 22 21 21 21 21 20 20 20 20 19 19 19 19 19 19 19
23 24 24 24 24 24 23 21 20 21 19 20 20 20 20 21 21 21 21 22 23 23 23 22 22 22 22 22 22 22 21 21 21 20 20 20 20 20 19 19 19 19 19 19
22 22 23 24 23 23 22 21 20 21 20 19 20 20 20 21 21 22 22 22 22 22 22 22 22 22 22 22 22 22 21 21 21 21 20 20 20 20 20 19 19 19 19 19
21 22 23 24 23 23 22 20 20 18 19 19 19 19 20 21 21 21 21 22 22 22 22 23 22 22 22 22 22 22 22 21 21 21 21 20 20 20 20 20 19 19 19 19
21 22 22 23 23 22 21 18 17 18 19 19 20 20 20 21 21 20 20 20 21 22 22 22 22 22 22 22 22 22 22 22 21 21 20 20 20 20 20 19 19 19 19 19
20 20 21 22 22 22 21 19 17 16 17 18 19 20 20 20 20 19 20 21 21 22 22 23 22 22 22 22 22 22 21 21 21 21 20 20 20 20 20 19 19 19 19 19
18 17 19 20 21 21 21 20 17 19 18 16 18 19 21 19 19 19 20 21 21 22 22 22 22 22 22 21 21 21 21 21 21 20 20 20 20 20 19 19 19 19 19 19
18 17 19 20 20 20 20 20 17 16 15 15 17 20 20 19 19 19 20 20 21 21 22 22 22 22 21 21 21 21 21 20 20 20 20 20 19 19 19 19 19 19 19 18
17 16 18 19 19 19 20 20 18 17 16 16 17 19 19 19 18 18 19 20 20 21 21 21 21 22 21 21 21 21 21 21 20 20 20 20 19 19 19 19 18 18 18 18
16 17 18 18 19 19 20 20 19 19 17 18 18 18 19 18 18 18 19 19 19 20 20 21 21 21 21 21 21 21 21 21 20 20 20 20 19 19 19 18 18 18 18 18
14 16 18 18 19 19 19 20 20 19 19 18 18 18 18 18 18 18 18 18 19 19 20 20 21 21 21 21 20 21 20 20 20 20 20 19 19 19 18 18 18 18 18 18
13 15 16 16 17 19 18 19 19 19 18 18 18 18 17 17 17 17 18 18 19 19 19 20 20 20 20 20 20 20 20 20 19 19 19 19 19 18 18 18 18 17 17 17
13 13 12 14 17 18 18 18 18 18 18 17 17 16 16 17 17 18 18 18 18 18 19 19 19 20 20 20 20 20 19 19 19 19 19 18 18 18 18 18 18 17 17 17
12 12 12 12 15 16 17 18 18 17 17 16 16 16 16 17 17 17 18 18 18 18 19 19 19 19 19 19 19 19 19 18 18 18 18 18 18 18 17 17 17 17 17 16
11 11 12 12 15 15 17 18 18 17 16 16 16 15 15 16 15 16 18 18 18 18 18 19 19 19 19 19 19 18 18 18 18 18 18 18 18 17 17 17 17 17 16 16
13 12 12 12 14 14 16 16 17 17 16 16 16 16 15 15 16 17 17 17 18 18 18 18 18 18 18 18 18 18 18 18 18 18 18 17 17 17 17 17 16 16 16 16
12 12 12 11 13 14 16 15 15 15 16 16 16 16 16 16 16 17 17 17 17 17 17 18 18 18 18 18 17 17 18 18 17 17 17 17 17 17 17 16 16 16 15 15
11 11 11 12 13 14 14 15 16 16 16 16 16 16 16 16 16 16 17 17 17 17 17 17 17 17 17 17 17 17 17 17 17 16 16 16 16 16 16 16 16 15 15 15
11 10 10 11 12 13 14 15 16 16 16 16 16 16 16 16 16 16 16 16 16 16 17 17 17 17 17 17 17 16 16 16 16 16 16 15 15 15 15 15 15 15 15 15
11 11 10 11 12 13 15 15 16 16 16 16 16 16 16 16 16 15 15 15 15 16 16 16 16 16 16 16 16 16 16 15 15 15 15 15 15 15 15 14 14 14 14 14
10 10 10 11 12 12 14 15 15 15 15 15 15 15 16 15 15 15 15 15 15 15 15 15 15 15 15 15 15 15 15 15 15 14 14 14 14 14 14 14 14 14 14 14
Wind_Speed
3 4 3 6 7 5 4 3 4 5 3 2 2 3 3 7 8 8 9 10 11 12 10 9 9 9 9 9 10 10 9 8 6 4 4 4 3 3 3 4 6 6 6 6
5 3 7 4 4 4 4 3 4 4 0 3 2 3 3 7 11 11 11 11 11 9 8 9 10 10 11 11 11 10 11 10 8 6 5 4 3 3 3 3 3 6 6 6
7 6 3 4 3 3 4 5 5 4 2 3 2 4 2 2 5 6 8 8 9 11 11 12 12 12 12 12 12 12 11 10 9 8 4 3 2 1 1 2 3 4 6 6
4 5 2 3 3 5 5 6 6 3 2 2 1 2 6 3 4 7 9 10 11 10 10 11 11 12 13 13 11 10 10 9 8 8 7 7 6 5 5 4 4 3 5 6
5 3 3 4 6 6 6 1 2 2 4 1 1 2 7 2 5 9 10 12 12 12 12 12 13 13 12 12 11 10 9 9 9 9 10 8 7 6 4 3 3 4 4 5
5 3 4 6 3 4 3 6 7 6 5 0 3 4 6 4 6 6 8 10 11 11 11 11 10 9 9 9 10 9 10 10 10 10 10 10 9 7 6 5 5 4 3 3
4 4 3 2 2 3 6 7 4 4 3 5 3 3 7 7 7 7 8 8 9 9 11 10 10 10 10 10 11 10 10 10 9 10 11 11 10 9 9 8 7 5 4 4
2 5 4 2 5 5 4 8 8 5 5 4 1 5 7 6 5 5 5 4 4 6 9 10 11 11 11 11 12 12 12 11 10 11 10 9 9 8 7 8 6 6 6 6
5 6 5 2 2 7 6 4 6 7 3 1 4 6 8 4 3 3 3 1 2 5 7 9 10 11 11 11 12 12 12 11 10 11 9 9 9 9 8 7 7 5 5 5
6 4 5 4 4 3 5 8 6 6 6 4 4 4 5 6 6 5 3 3 3 3 4 5 7 9 10 11 11 11 11 11 9 9 10 9 9 9 8 7 7 6 6 5
4 4 4 3 2 2 3 4 5 5 5 6 4 7 6 8 7 6 6 5 5 4 5 5 6 7 8 8 8 9 9 9 8 9 9 8 8 8 8 8 7 7 6 6
2 4 2 5 4 2 3 5 7 5 4 4 5 7 5 5 5 5 5 4 3 3 3 2 3 4 5 7 7 8 8 8 8 8 8 8 7 7 8 7 7 6 6 6
3 5 2 5 5 5 3 2 4 6 5 5 5 7 3 2 1 3 3 3 3 2 1 1 2 4 6 7 7 7 7 8 7 7 8 7 7 7 7 7 6 6 6 5
4 4 5 7 6 3 2 1 3 5 4 5 7 7 6 5 4 4 3 3 2 1 1 1 2 3 4 6 6 6 7 6 7 7 8 8 8 8 8 7 6 6 6 6
4 2 3 4 4 3 4 4 4 5 7 8 8 8 8 6 6 5 3 2 1 1 1 1 1 2 2 3 4 5 5 5 6 7 7 8 7 7 6 6 5 5 5 6
4 2 0 3 3 3 4 5 4 4 4 5 4 7 6 4 2 2 3 3 2 2 2 1 0 0 1 2 3 4 4 4 5 5 6 6 6 6 6 6 6 5 5 5
1 3 2 4 5 3 6 6 5 3 3 5 6 7 4 2 3 4 4 3 3 2 2 1 1 2 2 3 3 4 4 4 4 4 5 5 6 6 7 6 5 5 5 5
5 4 3 2 1 6 8 3 4 4 3 3 4 4 4 4 3 2 1 2 3 3 2 2 2 2 2 2 2 2 3 3 4 4 5 5 6 7 6 6 6 6 5 5
5 7 4 3 4 7 7 3 4 4 3 2 2 2 2 1 3 2 1 1 3 3 2 2 2 2 2 2 2 2 3 3 4 5 5 6 7 7 7 7 7 6 5 5
4 4 5 4 4 7 7 3 1 4 3 3 2 2 1 3 1 4 3 2 2 2 1 1 1 1 1 2 2 3 3 4 5 5 5 5 5 7 7 7 6 4 5 6
2 2 4 5 6 8 6 4 2 4 6 3 2 3 2 3 4 4 2 2 1 2 2 1 0 1 2 2 1 3 3 4 4 3 3 4 5 5 6 6 5 5 5 4
4 4 4 5 5 8 3 2 3 5 3 2 3 3 3 3 2 1 1 1 1 2 2 1 1 1 2 1 2 2 3 3 1 1 2 3 3 4 5 5 5 5 5 4
4 6 5 7 7 5 3 3 4 3 2 3 3 4 3 2 2 2 2 2 2 2 2 2 1 2 3 2 2 3 4 2 1 2 3 3 3 3 4 5 5 4 4 4
3 2 2 4 6 6 5 4 3 2 3 3 3 3 3 3 3 3 2 2 2 2 2 1 1 2 4 3 2 3 3 2 2 3 3 2 2 2 2 3 4 4 5 5
5 1 2 5 7 6 6 4 3 3 3 2 2 2 3 3 3 3 3 3 3 3 3 2 2 3 4 4 3 3 2 2 2 2 2 1 2 2 2 2 3 4 4 6
6 6 6 8 8 6 8 7 5 4 5 4 3 2 2 3 4 3 4 4 4 4 3 3 3 4 4 3 3 3 2 2 2 1 1 2 2 2 2 2 1 2 3 3
Wind_Direction
80 87 206 219 197 188 176 193 247 249 227 140 192 228 209 177 176 184 188 191 199 208 203 191 190 187 181 180 180 184 188 185 170 167 177 184 202 206 209 216 218 211 206 200
51 258 235 204 178 167 176 211 261 290 182 160 188 255 221 184 195 197 195 197 202 199 189 189 186 186 189 189 190 191 194 187 182 185 180 180 181 192 201 214 209 208 203 200
189 234 200 159 168 182 219 202 231 241 4 40 72 332 276 219 208 209 209 206 203 200 199 195 192 193 191 193 196 200 199 194 189 181 161 155 135 135 186 207 212 209 202 202
226 254 192 184 216 180 247 225 209 201 131 275 121 266 292 252 237 225 219 210 210 208 203 199 196 196 197 198 196 196 194 194 190 180 179 182 192 202 208 204 207 212 206 205
233 217 193 218 229 182 218 209 153 147 142 81 35 158 286 289 257 246 233 221 215 209 202 199 199 198 198 194 193 195 193 196 190 187 190 192 203 207 200 196 206 216 217 212
237 236 206 216 223 168 147 72 51 50 77 284 236 170 273 244 233 251 238 227 216 206 201 200 199 190 192 187 189 190 193 202 195 193 195 197 200 196 194 203 209 215 215 218
313 301 275 173 74 55 93 91 34 1 9 251 252 179 245 249 241 238 239 230 216 200 194 192 190 190 191 189 190 190 193 203 199 198 201 202 201 198 203 205 208 210 212 218
208 285 267 200 178 182 166 143 160 194 218 266 298 225 252 262 267 263 246 229 203 192 192 190 192 193 193 193 192 192 197 202 199 201 206 204 201 203 210 210 206 210 215 220
182 251 290 261 198 145 141 168 167 143 154 199 271 278 298 287 284 279 274 241 208 205 199 196 192 192 192 193 195 195 197 200 201 204 203 204 203 205 209 208 207 209 211 215
164 233 292 305 73 45 139 143 104 127 155 220 271 262 247 266 261 263 260 244 235 224 213 206 198 197 196 195 196 193 194 198 200 200 203 208 205 206 206 204 207 205 208 210
129 173 305 16 132 197 98 99 107 121 152 163 223 260 230 231 238 234 238 238 234 224 217 212 204 200 195 190 187 191 195 194 195 199 201 204 204 204 202 204 208 207 205 203
108 127 250 272 278 263 156 156 146 154 211 179 182 255 275 239 239 229 240 249 242 221 219 207 184 177 182 183 183 188 192 194 197 195 196 201 200 197 201 207 210 207 206 208
115 107 53 343 339 5 64 108 133 126 122 157 179 255 296 328 278 252 251 271 280 236 188 162 159 173 185 188 188 188 189 195 197 192 195 197 198 199 204 208 210 206 204 207
103 108 167 201 222 228 258 233 155 134 155 197 218 241 282 299 278 271 268 277 281 259 185 162 183 189 191 189 190 189 193 191 193 193 196 199 203 203 203 204 205 207 206 204
82 136 217 236 244 221 229 242 210 193 190 194 227 229 251 258 252 247 239 241 240 259 254 194 174 194 198 187 189 193 191 188 189 190 195 202 201 198 194 199 205 207 208 213
57 129 152 295 288 266 258 254 236 225 206 216 235 257 261 279 263 220 220 212 209 227 247 272 322 199 189 182 190 193 193 194 185 187 198 196 191 190 191 196 199 203 209 215
93 127 127 258 294 334 262 238 211 205 212 191 216 244 271 283 263 234 222 204 203 213 238 265 271 249 221 210 193 190 195 185 182 190 194 189 188 194 199 198 191 202 209 215
155 134 145 198 117 226 245 255 188 184 227 226 232 250 250 236 242 229 195 200 211 206 210 236 251 254 252 231 213 180 167 175 183 187 195 192 188 195 196 194 200 205 210 213
166 147 143 152 208 267 288 250 172 172 254 257 230 273 295 330 51 356 306 235 228 232 231 242 255 250 255 242 216 171 176 184 182 188 199 204 197 197 197 200 206 207 204 213
83 117 136 154 190 233 247 266 210 128 257 258 209 235 236 105 96 275 296 299 305 305 284 258 274 284 262 258 198 170 190 197 211 212 213 210 204 203 205 210 209 204 204 213
69 100 161 184 219 257 261 292 84 165 236 247 213 221 186 189 219 250 283 307 306 303 283 259 236 286 277 271 187 183 201 221 234 231 225 220 213 209 207 207 206 201 204 204
197 183 191 167 202 249 284 89 176 221 252 232 228 230 223 240 265 258 234 257 294 299 296 278 253 275 286 255 176 203 227 242 246 237 236 239 227 217 206 196 204 202 198 204
208 200 201 198 219 252 284 240 249 211 223 240 230 243 218 222 271 284 276 276 273 275 288 294 259 266 279 257 202 215 245 239 210 205 221 232 236 223 203 197 201 204 201 207
271 168 183 262 270 279 282 270 270 251 242 246 235 226 198 209 242 265 266 279 284 285 284 288 274 268 281 281 251 234 250 231 202 219 221 217 227 229 209 202 203 206 207 208
246 220 229 264 278 299 293 276 270 283 279 262 237 216 209 201 244 245 235 247 263 280 283 260 242 253 265 274 272 262 239 200 191 225 247 249 244 220 199 201 216 218 220 215
218 205 209 243 246 238 265 274 276 272 266 246 223 251 245 210 223 233 235 237 240 250 263 269 259 252 263 266 265 272 253 185 181 216 250 248 253 221 192 188 246 279 242 249
Height
1480 1486 1492 1489 1487 1489 1492 1496 1499 1494 1486 1490 1494 1494 1492 1492 1493 1495 1496 1498 1500 1502 1506 1509 1513 1516 1518 1521 1524 1526 1529 1531 1533 1536 1537 1539 1540 1542 1544 1545 1546 1548 1549 1550
1486 1489 1482 1481 1484 1487 1491 1497 1497 1491 1486 1490 1494 1494 1490 1490 1490 1491 1493 1495 1497 1500 1503 1506 1509 1513 1516 1518 1521 1524 1526 1529 1531 1534 1536 1538 1539 1541 1542 1544 1545 1546 1548 1549
1486 1482 1477 1481 1485 1489 1491 1495 1494 1494 1490 1490 1494 1498 1493 1490 1490 1492 1493 1494 1495 1497 1499 1502 1505 1509 1512 1515 1518 1521 1524 1526 1529 1532 1534 1536 1538 1539 1541 1542 1543 1545 1546 1547
1482 1477 1477 1481 1484 1486 1494 1484 1485 1489 1498 1505 1500 1515 1498 1492 1490 1489 1488 1490 1491 1493 1496 1499 1502 1505 1508 1511 1515 1519 1521 1524 1527 1530 1532 1533 1535 1536 1538 1540 1541 1543 1544 1545
1480 1476 1477 1481 1479 1480 1483 1479 1483 1488 1498 1507 1506 1513 1506 1493 1492 1486 1483 1484 1486 1489 1491 1494 1497 1500 1504 1508 1512 1515 1519 1521 1524 1527 1529 1531 1532 1534 1536 1538 1539 1540 1542 1543
1475 1472 1472 1473 1472 1474 1477 1483 1491 1499 1506 1519 1508 1513 1510 1497 1489 1482 1479 1479 1481 1484 1487 1490 1494 1498 1501 1505 1508 1512 1515 1518 1520 1523 1525 1527 1529 1531 1533 1534 1536 1537 1539 1540
1480 1474 1470 1470 1475 1477 1481 1498 1517 1519 1527 1523 1507 1509 1504 1484 1479 1477 1476 1475 1477 1480 1483 1486 1490 1493 1496 1500 1504 1507 1510 1513 1516 1519 1521 1524 1526 1528 1529 1531 1533 1534 1535 1537
1490 1490 1473 1469 1473 1480 1484 1493 1516 1526 1528 1521 1509 1510 1493 1477 1474 1473 1473 1473 1474 1477 1479 1481 1484 1487 1491 1495 1499 1502 1505 1509 1512 1514 1517 1520 1522 1524 1526 1527 1529 1530 1532 1533
1491 1489 1470 1467 1467 1472 1484 1492 1492 1510 1516 1521 1516 1504 1487 1475 1474 1472 1471 1471 1472 1474 1475 1477 1480 1483 1487 1490 1494 1497 1500 1504 1507 1510 1513 1515 1517 1519 1521 1523 1525 1526 1527 1529
1479 1485 1474 1469 1468 1471 1475 1485 1500 1512 1524 1526 1515 1507 1498 1481 1475 1472 1471 1470 1470 1471 1473 1475 1477 1479 1483 1486 1490 1493 1496 1499 1502 1505 1508 1510 1512 1514 1517 1519 1520 1522 1523 1525
1475 1485 1481 1475 1477 1479 1481 1488 1497 1509 1511 1521 1523 1509 1479 1476 1472 1471 1469 1469 1469 1470 1471 1472 1474 1476 1479 1483 1486 1489 1492 1495 1498 1501 1503 1505 1507 1509 1512 1514 1516 1518 1519 1521
1478 1487 1492 1483 1474 1472 1474 1481 1492 1502 1508 1513 1514 1503 1470 1469 1468 1468 1468 1468 1468 1469 1469 1470 1472 1474 1477 1479 1482 1485 1488 1490 1493 1496 1498 1500 1503 1505 1507 1509 1511 1513 1515 1516
1478 1488 1498 1493 1488 1479 1478 1480 1486 1494 1505 1513 1512 1497 1469 1468 1467 1467 1467 1466 1466 1467 1467 1468 1470 1471 1474 1476 1479 1482 1484 1487 1490 1492 1494 1496 1499 1501 1503 1505 1507 1509 1510 1512
1475 1488 1494 1498 1492 1484 1481 1480 1483 1490 1502 1505 1500 1487 1475 1470 1468 1466 1466 1466 1466 1466 1466 1467 1468 1469 1471 1473 1476 1479 1481 1484 1486 1488 1490 1491 1494 1496 1499 1501 1503 1505 1506 1507
1476 1486 1484 1483 1480 1479 1478 1478 1478 1482 1486 1491 1485 1483 1474 1469 1467 1465 1465 1465 1465 1465 1465 1466 1466 1467 1468 1469 1472 1475 1478 1480 1482 1484 1486 1488 1490 1493 1495 1497 1499 1500 1501 1502
1480 1485 1484 1483 1479 1479 1478 1475 1474 1475 1476 1479 1478 1477 1467 1466 1465 1464 1464 1464 1464 1464 1465 1465 1466 1466 1467 1468 1470 1472 1474 1476 1478 1480 1482 1484 1486 1488 1490 1492 1494 1496 1497 1497
1484 1487 1491 1493 1484 1479 1484 1473 1472 1472 1472 1473 1476 1472 1466 1465 1463 1463 1463 1463 1463 1464 1464 1465 1465 1465 1466 1467 1468 1470 1471 1473 1474 1476 1478 1480 1482 1483 1486 1488 1489 1491 1492 1493
1483 1488 1495 1496 1489 1494 1478 1465 1465 1468 1468 1468 1467 1466 1464 1462 1461 1461 1462 1462 1462 1463 1463 1464 1464 1465 1465 1466 1467 1468 1469 1470 1471 1473 1475 1476 1478 1479 1481 1483 1484 1485 1487 1488
1476 1484 1495 1500 1497 1487 1473 1465 1464 1468 1469 1466 1465 1464 1462 1461 1461 1461 1461 1461 1462 1462 1463 1463 1464 1464 1464 1465 1466 1466 1467 1468 1469 1469 1471 1472 1474 1475 1476 1478 1479 1480 1482 1483
1478 1480 1490 1496 1493 1491 1473 1462 1460 1464 1471 1464 1463 1463 1462 1461 1465 1463 1460 1461 1461 1461 1462 1463 1463 1463 1463 1463 1464 1464 1464 1465 1466 1466 1468 1469 1470 1471 1472 1474 1475 1476 1478 1478
1482 1485 1488 1491 1489 1480 1465 1461 1460 1474 1470 1462 1461 1461 1461 1461 1462 1461 1460 1460 1460 1460 1461 1462 1462 1461 1461 1461 1460 1461 1462 1462 1462 1463 1464 1465 1466 1467 1468 1470 1471 1472 1473 1474
1482 1484 1486 1489 1488 1481 1462 1461 1465 1464 1459 1459 1460 1460 1460 1460 1459 1458 1459 1459 1459 1460 1460 1460 1459 1459 1460 1459 1459 1458 1458 1458 1459 1460 1461 1462 1462 1463 1464 1465 1467 1468 1469 1469
1478 1478 1478 1477 1474 1464 1461 1460 1459 1459 1458 1458 1458 1458 1458 1458 1458 1458 1458 1458 1459 1459 1458 1458 1458 1458 1458 1458 1457 1457 1456 1457 1457 1457 1458 1458 1459 1459 1460 1461 1462 1463 1464 1464
1473 1471 1473 1471 1465 1461 1459 1457 1457 1457 1456 1456 1456 1456 1457 1457 1457 1456 1456 1457 1457 1457 1457 1456 1456 1456 1455 1455 1455 1454 1454 1454 1454 1454 1454 1454 1455 1455 1456 1457 1458 1458 1459 1459
1471 1470 1471 1469 1463 1459 1456 1456 1455 1454 1454 1453 1453 1454 1454 1454 1454 1454 1454 1455 1455 1455 1455 1454 1454 1453 1453 1453 1452 1452 1452 1451 1451 1450 1450 1450 1451 1451 1451 1452 1453 1454 1455 1455
1466 1467 1468 1465 1459 1459 1455 1454 1453 1452 1451 1451 1451 1451 1452 1452 1452 1452 1452 1452 1453 1452 1452 1452 1451 1451 1451 1450 1450 1449 1449 1448 1448 1447 1447 1447 1447 1447 1447 1448 1449 1451 1451 1452